Regional Weather Roundup
Issued by NWS

Home | Current Version | Previous Version | Graphics & Text | Print | Product List | Glossary On
Versions: 1 2 3 4 5 6 7 8 9 10 11 12 13 14 15 16 17 18 19 20 21 22 23 24 25 26 27 28 29 30 31 32 33 34 35 36 37 38 39 40 41 42 43 44 45 46 47 48 49 50
031
ASUS45 KCYS 200710
RWRWY

WYOMING REGIONAL WEATHER ROUNDUP
NATIONAL WEATHER SERVICE CHEYENNE WY
100 AM MDT FRI APR 20 2018

NOTE:  "FAIR" INDICATES FEW OR NO CLOUDS BELOW 12,000 FEET
WITH NO SIGNIFICANT WEATHER AND/OR OBSTRUCTIONS TO VISIBILITY.

WYZ001-200800-
YELLOWSTONE NATIONAL PARK

CITY           SKY/WX    TMP DP  RH WIND       PRES   REMARKS
LK YELLOWSTONE   N/A     29  17  61 CALM      30.09R
W YELLOWSTONE  NOT AVBL

$$
WYZ002>013-054>058-071-098>099-200800-
NORTHERN WYOMING

CITY           SKY/WX    TMP DP  RH WIND       PRES   REMARKS
JACKSON        FAIR      39  23  52 N17       29.98R WCI  30
CODY           FAIR      43  25  49 SW6       30.03S
GREYBULL       FAIR      46  32  58 CALM      29.98S
WORLAND        FAIR      40  32  73 CALM      29.97S
SHERIDAN       FAIR      49  33  54 S10       30.00S
BUFFALO        FAIR      43  31  62 S8        30.04F
GILLETTE       FAIR      46  29  51 SE21G28   30.04S
HULETT         FAIR      41  32  70 E7        30.10F
NEWCASTLE      FAIR      45  25  45 SE25G32   30.11S

$$
WYZ014>020-022>026-101>103-200800-
CENTRAL WYOMING

CITY           SKY/WX    TMP DP  RH WIND       PRES   REMARKS
BIG PINEY      MOCLDY    47  17  30 E8        29.92F
PINEDALE       FAIR      43  19  39 NE5       29.93F
DUBOIS         CLOUDY    36  19  51 CALM      30.02R
LANDER         FAIR      45  26  47 W6        29.96R
RIVERTON       FAIR      45  25  45 N12       29.96S
CASPER         FAIR      44  27  51 E14       29.94S
DOUGLAS        FAIR      44  29  55 SE28G38   29.99F

$$
WYZ021-027>030-104>119-200800-
SOUTHERN WYOMING

CITY           SKY/WX    TMP DP  RH WIND       PRES   REMARKS
EVANSTON       CLOUDY    44  27  51 NE10      29.87F
KEMMERER       FAIR      43  18  36 NE9       29.90S
FORT BRIDGER   CLOUDY    44  28  54 S6        29.90S
ROCK SPRINGS   CLOUDY    45  21  38 NE20G28   29.86S
DIXON          CLOUDY    51  29  43 SW5       29.89F
RAWLINS        FAIR      44  20  38 NE7       29.91S
SARATOGA       FAIR      46  23  39 SE9       29.90S
LARAMIE        FAIR      35  21  56 S5G16     29.96F WCI  31
CHEYENNE       FAIR      38  25  59 SE23G30   30.00F WCI  27
TORRINGTON     FAIR      42  27  55 E18       30.06R
PINE BLUFFS    FAIR      39  27  60 MISG      30.01F

$$




USA.gov is the U.S. government's official web portal to all federal, state and local government web resources and services.